Location: Almena City Lake
(39.8850°N, 99.6804°W)
Time: 00:53:59
(UTC+00:00)

STARLINK-74 - Pass Details

Date: 18 February 2020
Orbit: 529 x 530 km, 53.0° (Epoch: 04 April)

Event Time Altitude Azimuth Distance (km) Brightness Sun altitude
Rises 01:29:40 0° 222° (SW) 2,654 7.8 -14.6°
Reaches altitude 10° 01:31:52 10° 219° (SW) 1,768 6.8 -15.0°
Maximum altitude 01:35:51 67° 137° (SE) 578 3.5 -15.8°
Enters shadow 01:37:43 30° 63° (ENE) 975 4.4 -16.2°
